Location: San Antonio
(29.4240°N, 98.4930°W)
Time: 19:13:31
(UTC-06:00)

ISS - All Passes

Search period start: 17 November 2017 00:00
Search period end: 27 November 2017 00:00
Orbit: 401 x 407 km, 51.6° (Epoch: 18 November)

Date Brightness Start Highest point End Pass type
(mag) Time Alt. Az. Time Alt. Az. Time Alt. Az.
17 Nov - 05:31:10 10° N 05:33:20 16° NE 05:35:31 10° E visible
17 Nov - 07:06:55 10° WNW 07:09:51 31° SW 07:12:46 10° SSE daylight
17 Nov - 22:05:36 10° SW 22:08:48 54° NW 22:12:00 10° NE night (unlit)
18 Nov - 06:14:25 10° NW 06:17:41 80° SW 06:20:54 10° SE visible
18 Nov - 21:13:20 10° SSW 21:16:33 59° SE 21:19:47 10° NE night (unlit)
18 Nov - 22:52:18 10° NW 22:53:17 11° NW 22:54:16 10° NNW night (unlit)
19 Nov - 05:22:18 10° NNW 05:25:24 41° NE 05:28:29 10° ESE visible
19 Nov - 07:00:54 10° WSW 07:01:31 10° SW 07:02:10 10° SW daylight
19 Nov - 20:21:40 10° S 20:24:23 24° SE 20:27:06 10° ENE night (unlit)
19 Nov - 21:58:18 10° W 22:00:48 20° NW 22:03:17 10° N night (unlit)
20 Nov - 04:30:30 10° NNW 04:33:01 20° NE 04:35:31 10° E visible
20 Nov - 06:06:46 10° WNW 06:09:25 23° SW 06:12:04 10° S visible
20 Nov - 19:31:18 10° SE 19:32:15 11° SE 19:33:13 10° ESE visible
20 Nov - 21:05:18 10° WSW 21:08:24 40° NW 21:11:31 10° NNE night (unlit)
21 Nov - 03:39:26 10° NNE 03:40:31 11° NE 03:41:36 10° NE night (unlit)
21 Nov - 05:14:02 10° NW 05:17:14 56° SW 05:20:25 10° SSE visible
21 Nov - 20:12:50 10° SW 20:16:05 83° SE 20:19:21 10° NE visible
22 Nov - 04:21:45 10° NW 04:24:57 56° NE 04:28:09 10° SE visible
22 Nov - 19:20:52 10° SSW 19:23:51 32° SE 19:26:49 10° ENE visible
22 Nov - 20:58:13 10° WNW 21:00:22 16° NW 21:02:31 10° N night (unlit)
23 Nov - 03:29:47 10° NNW 03:32:34 25° NE 03:35:20 10° E night (unlit)
23 Nov - 05:06:35 10° W 05:08:52 18° SW 05:11:07 10° S visible
23 Nov - 18:29:46 10° SSE 18:31:39 15° SE 18:33:34 10° E visible
23 Nov - 20:04:57 10° WSW 20:07:54 31° NW 20:10:51 10° NNE visible
24 Nov - 02:38:17 10° N 02:40:04 14° NE 02:41:51 10° ENE night (unlit)
24 Nov - 04:13:35 10° WNW 04:16:40 40° SW 04:19:44 10° SSE night (unlit)
24 Nov - 19:12:16 10° SW 19:15:31 72° NW 19:18:46 10° NE visible
25 Nov - 03:21:07 10° NW 03:24:23 78° NE 03:27:37 10° SE night (unlit)
25 Nov - 18:20:05 10° SSW 18:23:12 44° SE 18:26:21 10° ENE visible
25 Nov - 19:58:10 10° WNW 19:59:50 13° NW 20:01:30 10° N visible
26 Nov - 02:29:00 10° NNW 02:31:59 32° NE 02:34:57 10° ESE night (unlit)
26 Nov - 04:06:30 10° W 04:08:11 13° SW 04:09:53 10° SSW night (unlit)
26 Nov - 17:28:33 10° S 17:30:58 19° SE 17:33:22 10° E daylight
26 Nov - 19:04:33 10° W 19:07:17 24° NW 19:10:02 10° NNE visible
